| time (UTC) | temp F | wind direction | speed knots | gust knots | rain 1hr in | rain 24hr in | rain mn in | humidity % | barometer mb |
| 20260504035402 | 40 | 351 | 13.9 | 22.6 | 0.00 | 0.00 | 0.00 | 71 | 1000.0 |
| 20260504033412 | 41 | 346 | 15.6 | 24.3 | 0.00 | 0.00 | 0.00 | 70 | 999.3 |
| 20260504031414 | 43 | 329 | 15.6 | 24.3 | 0.00 | 0.00 | 0.00 | 68 | 999.3 |
| 20260504025853 | 44 | 327 | 15.6 | 25.2 | 0.00 | 0.00 | 0.00 | 66 | 999.3 |
| 20260504023901 | 46 | 322 | 17.4 | 30.4 | 0.00 | 0.00 | 0.00 | 63 | 998.9 |
| 20260504022359 | 47 | 248 | 20.0 | 33.9 | 0.00 | 0.00 | 0.00 | 59 | 998.9 |
| 20260504020415 | 49 | 259 | 20.0 | 28.7 | 0.00 | 0.00 | 0.00 | 58 | 998.4 |
| 20260504014902 | 51 | 290 | 15.6 | 26.1 | 0.00 | 0.00 | 0.00 | 57 | 998.1 |
| 20260504012901 | 53 | 263 | 14.8 | 26.1 | 0.00 | 0.00 | 0.00 | 46 | 997.3 |
| 20260504010855 | 53 | 258 | 11.3 | 19.1 | 0.00 | 0.00 | 0.00 | 53 | 997.2 |
| 20260504005353 | 53 | 267 | 7.8 | 13.9 | 0.00 | 0.00 | 0.00 | 58 | 997.1 |
| 20260504003409 | 52 | 250 | 9.6 | 15.6 | 0.00 | 0.00 | 0.00 | 62 | 996.9 |
| 20260504001905 | 51 | 232 | 7.8 | 13.0 | 0.00 | 0.00 | 0.00 | 70 | 997.1 |
| 20260503235400 | 50 | 221 | 8.7 | 18.2 | 0.00 | 0.00 | 0.00 | 74 | 997.4 |
| 20260503233404 | 52 | 265 | 20.0 | 27.8 | 0.00 | 0.00 | 0.00 | 66 | 998.3 |
| 20260503231402 | 57 | 267 | 17.4 | 31.3 | 0.00 | 0.00 | 0.00 | 49 | 997.3 |
| 20260503225856 | 58 | 252 | 15.6 | 31.3 | 0.00 | 0.00 | 0.00 | 50 | 996.7 |
| 20260503223914 | 59 | 264 | 20.0 | 28.7 | 0.00 | 0.00 | 0.00 | 53 | 996.4 |
| 20260503222343 | 58 | 246 | 14.8 | 26.9 | 0.00 | 0.00 | 0.00 | 56 | 995.9 |
| 20260503220349 | 66 | 233 | 15.6 | 26.1 | 0.00 | 0.00 | 0.00 | 38 | 995.0 |
| 20260503214850 | 66 | 234 | 15.6 | 22.6 | 0.00 | 0.00 | 0.00 | 38 | 995.2 |
| 20260503212858 | 67 | 225 | 16.5 | 24.3 | 0.00 | 0.00 | 0.00 | 36 | 995.5 |
| 20260503210902 | 65 | 245 | 16.5 | 20.9 | 0.00 | 0.00 | 0.00 | 38 | 996.2 |
| 20260503204914 | 65 | 244 | 13.0 | 19.1 | 0.00 | 0.00 | 0.00 | 38 | 996.8 |
| 20260503202913 | 64 | 234 | 13.9 | 23.5 | 0.00 | 0.00 | 0.00 | 39 | 997.2 |
| 20260503200914 | 65 | 235 | 19.1 | 26.1 | 0.00 | 0.00 | 0.00 | 36 | 997.4 |
| 20260503195358 | 66 | 238 | 19.1 | 25.2 | 0.00 | 0.00 | 0.00 | 36 | 997.7 |
| 20260503193401 | 66 | 242 | 17.4 | 24.3 | 0.00 | 0.00 | 0.00 | 36 | 998.0 |
| 20260503191408 | 66 | 240 | 16.5 | 28.7 | 0.00 | 0.00 | 0.00 | 36 | 998.2 |
| 20260503185859 | 67 | 264 | 19.1 | 25.2 | 0.00 | 0.00 | 0.00 | 35 | 998.3 |
| 20260503183914 | 67 | 244 | 19.1 | 24.3 | 0.00 | 0.00 | 0.00 | 36 | 998.5 |
| 20260503181913 | 66 | 227 | 19.1 | 26.1 | 0.00 | 0.00 | 0.00 | 39 | 998.5 |
| 20260503180357 | 67 | 236 | 19.1 | 29.5 | 0.00 | 0.00 | 0.00 | 38 | 998.8 |
| 20260503174433 | 67 | 227 | 20.9 | 26.9 | 0.00 | 0.00 | 0.00 | 40 | 999.0 |
| 20260503172930 | 66 | 225 | 19.1 | 27.8 | 0.00 | 0.00 | 0.00 | 44 | 999.1 |
| 20260503171357 | 66 | 221 | 21.7 | 33.0 | 0.00 | 0.00 | 0.00 | 44 | 999.0 |
| 20260503130908 | 43 | 222 | 7.0 | 8.7 | 0.00 | 0.00 | 0.00 | 77 | 1004.9 |
| 20260503080852 | 34 | 184 | 0.9 | 1.7 | 0.00 | 0.00 | 0.00 | 90 | 1008.3 |
| 20260503071853 | 35 | 184 | 0.0 | 1.7 | 0.00 | 0.00 | 0.00 | 90 | 1008.8 |
| 20260503070203 | 35 | 184 | 0.9 | 2.6 | 0.00 | 0.00 | 0.00 | 89 | 1008.9 |
| 20260503054904 | 38 | 145 | 0.0 | 0.0 | 0.00 | 0.00 | 0.00 | 84 | 1009.4 |
| 20260503052901 | 40 | 145 | 0.0 | 0.0 | 0.00 | 0.00 | 0.00 | 81 | 1009.6 |
| 20260503051401 | 41 | 145 | 0.0 | 0.0 | 0.00 | 0.00 | 0.00 | 76 | 1009.6 |
| 20260503045413 | 41 | 145 | 0.0 | 1.7 | 0.00 | 0.00 | 0.00 | 75 | 1009.6 |
| 20260503043859 | 39 | 144 | 0.0 | 1.7 | 0.00 | 0.00 | 0.00 | 80 | 1009.6 |
| 20260503041857 | 40 | 144 | 0.0 | 1.7 | 0.00 | 0.00 | 0.00 | 76 | 1009.7 |
| 20260503040356 | 41 | 144 | 0.0 | 0.0 | 0.00 | 0.00 | 0.00 | 72 | 1009.7 |